[[{"header":{"parameterUnit":"m.s-1","parameterCategory":1,"la1":30.2991,"la2":30.254,"lo1":-89.0895,"lo2":-89.0444,"dy":0.0017,"dx":0.0017,"nx":28,"ny":28,"refTime":"2023-10-04T21:00:00:Z","depth":0,"parameterNumber":2,"parameterNumberName":"U-component_of_WINDS"},"data":[0,0,0,0,0,0,0,0,0,0,0,0,0,0,0,0,0,0,0,0,0,0,0,0,0,0,0,0,0,0,0,0,0,0,0,0,0,0,0,0,0,0,0,0,0,0,0,0,0,0,0,0,0,0,0,0,0,0,-3.6308,-3.6309,0,-3.6414,-3.6415,-3.6416,-3.6414,-3.6413,-3.6411,-3.641,-3.6515,-3.6519,-3.6523,0,0,0,0,0,0,0,0,0,0,0,0,0,-3.6101,-3.6105,-3.6308,-3.6309,-3.6311,-3.6414,-3.6415,-3.6417,-3.6414,-3.6413,-3.6411,-3.6409,-3.6514,-3.6518,-3.6523,0,0,0,0,0,0,0,0,0,0,0,0,0,-3.6197,-3.6106,-3.6308,-3.6322,-3.6324,-3.6414,-3.6415,-3.6417,-3.6415,-3.6413,-3.6411,-3.6409,-3.6512,-3.6518,-3.6524,-3.6605,0,0,-3.6543,-3.6546,0,0,0,0,0,0,0,0,-3.6192,-3.6205,-3.6319,-3.6321,-3.6324,-3.6399,-3.6381,-3.648,-3.6415,-3.638,-3.641,-3.6407,-3.6478,-3.6487,-3.6511,-3.661,-3.6614,-3.6543,-3.6547,-3.655,-3.6552,0,0,0,0,0,0,0,-3.6185,-3.62,-3.635,-3.632,-3.6324,-3.6322,-3.6334,-3.64,-3.644,-3.6383,-3.6383,-3.6396,-3.6479,-3.6505,-3.6513,-3.6616,-3.6543,-3.6549,-3.6553,-3.6555,-3.6786,-3.6788,0,0,0,0,0,0,-3.6176,-3.6195,-3.6346,-3.6353,-3.6251,-3.6328,-3.634,-3.6377,-3.6439,-3.6446,-3.6398,-3.6396,-3.6496,-3.6506,-3.6517,-3.6616,-3.655,-3.6556,-3.6559,-3.6784,-3.6787,-3.6789,0,0,0,0,0,0,-3.6171,-3.6189,-3.6342,-3.6274,-3.6293,-3.6334,-3.6375,-3.638,-3.6406,-3.645,-3.6457,-3.6418,-3.6494,-3.6508,-3.6583,-3.6619,-3.6558,-3.6564,-3.6781,-3.6784,-3.6788,-3.6813,0,0,0,0,0,0,-3.6166,-3.6188,-3.622,-3.6275,-3.6297,-3.6408,-3.6377,-3.6384,-3.6418,-3.6416,-3.647,-3.6477,-3.6494,-3.6574,-3.6589,-3.6626,-3.6569,-3.6778,-3.6782,-3.6787,-3.6809,-3.6817,-3.6824,0,0,0,0,0,-3.6158,-3.6222,-3.6221,-3.624,-3.6338,-3.641,-3.6422,-3.6441,-3.642,-3.6452,-3.648,-3.6475,-3.6613,-3.6582,-3.6599,-3.6638,-3.6775,-3.6781,-3.6786,-3.6806,-3.6815,-3.6824,0,0,0,0,0,0,-3.6168,-3.6229,-3.6229,-3.6313,-3.6356,-3.6409,-3.645,-3.6451,-3.65,-3.6496,-3.6516,-3.6528,-3.6603,-3.6628,-3.6592,-3.672,-3.6692,-3.6701,-3.67,-3.671,-3.6717,-3.6709,-3.6574,0,0,0,0,0,-3.6181,-3.6235,-3.6285,-3.6354,-3.6376,-3.6409,-3.6441,-3.6452,-3.6497,-3.6515,-3.6548,-3.6592,-3.6645,-3.6679,-3.673,-3.6813,-3.6825,-3.6849,-3.6856,-3.6862,-3.6869,-3.6915,-3.6926,-3.6807,-3.6807,-3.6807,0,0,-3.6206,-3.6246,-3.6278,-3.6357,-3.6391,-3.6446,-3.6424,-3.6483,-3.6524,-3.6524,-3.6596,-3.6623,-3.6672,-3.6752,-3.6788,-3.6775,-3.6905,-3.6869,-3.6874,-3.6878,-3.6922,-3.6933,-3.6943,-3.6811,-3.681,-3.681,0,0,-3.6279,-3.6316,-3.6377,-3.6413,-3.6466,-3.6488,-3.6503,-3.6557,-3.6574,-3.6648,-3.6649,-3.6697,-3.6788,-3.6823,-3.6853,-3.6942,-3.6939,-3.6958,-3.6996,-3.704,-3.7049,-3.7057,-3.7088,-3.7099,-3.6965,-3.6965,-3.6965,0,-3.6303,-3.6387,-3.6408,-3.6468,-3.6501,-3.6506,-3.6567,-3.6601,-3.6668,-3.6691,-3.6676,-3.679,-3.6824,-3.6911,-3.6933,-3.6957,-3.6974,-3.6951,-3.7046,-3.7055,-3.7063,-3.7092,-3.7104,-3.6967,-3.6967,-3.6967,-3.6967,0,-3.6414,-3.6472,-3.6515,-3.6581,-3.662,-3.668,-3.6709,-3.6746,-3.6754,-3.6777,-3.6852,-3.6893,-3.6952,-3.6974,-3.6982,-3.7063,-3.7053,-3.7042,-3.7014,-3.7076,-3.7104,-3.7115,-3.697,-3.6969,-3.6969,-3.6968,0,0,-3.6495,-3.6573,-3.6589,-3.6619,-3.6679,-3.6723,-3.6784,-3.6843,-3.6874,-3.6921,-3.6971,-3.7048,-3.7039,-3.7073,-3.7084,-3.7123,-3.719,-3.7107,-3.7109,-3.712,-3.7281,-3.7288,-3.7301,-3.7189,-3.7191,-3.7193,-3.7276,0,-3.6575,-3.6683,-3.6704,-3.6797,-3.6851,-3.6856,-3.6908,-3.695,-3.6974,-3.7022,-3.7048,-3.7102,-3.7086,-3.7107,-3.7145,-3.7174,-3.7222,-3.7168,-3.7235,-3.7237,-3.7221,-3.7316,-3.7323,-3.74,-3.7287,-3.7289,-3.7291,0,-3.6681,-3.6732,-3.6831,-3.6884,-3.6907,-3.6954,-3.7011,-3.7057,-3.7105,-3.7119,-3.7158,-3.7165,-3.7227,-3.7197,-3.7282,-3.7245,-3.7274,-3.7292,-3.7295,-3.7301,-3.7267,-3.7323,-3.7424,-3.7435,-3.7308,-3.7307,-3.7306,0,-3.673,-3.6823,-3.6894,-3.692,-3.6984,-3.7016,-3.7044,-3.709,-3.7125,-3.7174,-3.7196,-3.7251,-3.7281,-3.7323,-3.7345,-3.7322,-3.7429,-3.7401,-3.7441,-3.7441,-3.7462,-3.746,-3.7569,-3.7483,-3.7483,-3.7483,-3.7483,0,-3.6816,-3.6876,-3.6917,-3.696,-3.7028,-3.7051,-3.7117,-3.7144,-3.7185,-3.7234,-3.7242,-3.7287,-3.7314,-3.7363,-3.738,-3.7448,-3.7461,-3.7474,-3.7478,-3.7473,-3.7471,-3.7491,-3.7486,-3.7486,-3.7485,-3.7485,-3.7484,0,-3.6881,-3.6911,-3.6989,-3.7043,-3.7059,-3.7106,-3.7152,-3.7194,-3.7219,-3.728,-3.7295,-3.7333,-3.7391,-3.7418,-3.7489,-3.7501,-3.7578,-3.7578,-3.7562,-3.7563,-3.7602,-3.7597,-3.7726,-3.7743,-3.7647,-3.7648,-3.7648,0,-3.6933,-3.6979,-3.704,-3.7073,-3.7102,-3.7156,-3.7192,-3.7217,-3.7253,-3.7312,-3.7347,-3.7405,-3.7453,-3.7545,-3.7578,-3.7633,-3.7634,-3.7676,-3.7642,-3.7636,-3.7634,-3.763,-3.7635,-3.7681,-3.7682,-3.7683,-3.7683,0,-3.7022,-3.7035,-3.7086,-3.7143,-3.7186,-3.7232,-3.7277,-3.7303,-3.7335,-3.7376,-3.7436,-3.7473,-3.7547,-3.7604,-3.7661,-3.7689,-3.7691,-3.7694,-3.7706,-3.7701,-3.7689,-3.7695,-3.7577,-3.769,-3.769,-3.7689,-3.7689,-3.7689,-3.7082,-3.7123,-3.7172,-3.7229,-3.7266,-3.7308,-3.735,-3.7381,-3.7431,-3.7494,-3.7505,-3.7569,-3.7615,-3.7692,-3.7722,-3.7772,-3.7762,-3.778,-3.7784,-3.7788,-3.7789,-3.7682,-3.7782,-3.7782,-3.7782,-3.7782,-3.7782,0,-3.717,-3.7203,-3.7255,-3.7318,-3.7363,-3.7363,-3.7413,-3.745,-3.7506,-3.755,-3.7597,-3.7666,-3.7722,-3.776,-3.7817,-3.7849,-3.7852,-3.7863,-3.786,-3.7867,-3.7795,-3.7779,-3.786,-3.786,-3.786,-3.786,-3.786,-3.786,-3.7222,-3.7292,-3.7311,-3.7399,-3.7431,-3.7494,-3.7522,-3.7561,-3.7596,-3.7672,-3.772,-3.7745,-3.7786,-3.7846,-3.7897,-3.7907,-3.7927,-3.7939,-3.7948,-3.788,-3.7872,-3.7864,-3.7848,-3.7943,-3.7943,-3.8015,-3.8015,-3.8016]},{"header":{"parameterUnit":"m.s-1","parameterCategory":1,"la1":30.2991,"la2":30.254,"lo1":-89.0895,"lo2":-89.0444,"dy":0.0017,"dx":0.0017,"nx":28,"ny":28,"refTime":"2023-10-04T21:00:00:Z","depth":0,"parameterNumber":3,"parameterNumberName":"V-component_of_WINDS"},"data":[0,0,0,0,0,0,0,0,0,0,0,0,0,0,0,0,0,0,0,0,0,0,0,0,0,0,0,0,0,0,0,0,0,0,0,0,0,0,0,0,0,0,0,0,0,0,0,0,0,0,0,0,0,0,0,0,0,0,5.2852,5.2852,0,5.2842,5.2841,5.2841,5.2755,5.2752,5.275,5.2748,5.2737,5.2739,5.2741,0,0,0,0,0,0,0,0,0,0,0,0,0,5.2799,5.2801,5.2852,5.2852,5.2852,5.2842,5.2841,5.2841,5.2755,5.2752,5.275,5.2747,5.2737,5.2739,5.2741,0,0,0,0,0,0,0,0,0,0,0,0,0,5.2809,5.2801,5.2853,5.2808,5.2804,5.2842,5.2841,5.2841,5.2756,5.2752,5.2749,5.2746,5.2736,5.2739,5.2741,5.2821,0,0,5.2749,5.275,0,0,0,0,0,0,0,0,5.2809,5.2811,5.2815,5.2811,5.2806,5.2796,5.2819,5.2834,5.2756,5.2774,5.2748,5.2745,5.276,5.276,5.2765,5.2821,5.282,5.2749,5.2751,5.2752,5.2753,0,0,0,0,0,0,0,5.2808,5.2811,5.2848,5.2815,5.281,5.2789,5.2786,5.2821,5.2785,5.2772,5.2766,5.2766,5.2757,5.2763,5.2764,5.282,5.2749,5.2751,5.2753,5.2754,5.2941,5.2944,0,0,0,0,0,0,5.2813,5.2811,5.2848,5.2848,5.28,5.2792,5.279,5.2803,5.2784,5.2778,5.2768,5.2762,5.276,5.2761,5.2763,5.2855,5.2752,5.2754,5.2756,5.2937,5.2941,5.2945,0,0,0,0,0,0,5.2813,5.2818,5.2849,5.2828,5.283,5.2797,5.2812,5.2804,5.281,5.2781,5.2775,5.2781,5.2758,5.276,5.2807,5.2854,5.2755,5.2758,5.2933,5.2939,5.2943,5.304,0,0,0,0,0,0,5.2812,5.2818,5.2848,5.2829,5.2832,5.2893,5.2815,5.2806,5.2815,5.2806,5.2792,5.2786,5.2755,5.2804,5.281,5.2855,5.276,5.2929,5.2936,5.2942,5.3033,5.3048,5.3061,0,0,0,0,0,5.281,5.2875,5.285,5.2855,5.2868,5.2896,5.2897,5.286,5.2819,5.2848,5.283,5.2787,5.2848,5.281,5.2816,5.2863,5.2926,5.2934,5.2941,5.3026,5.3045,5.3061,0,0,0,0,0,0,5.29,5.2872,5.2843,5.2904,5.2903,5.2881,5.2917,5.2881,5.2892,5.2883,5.2837,5.2834,5.2889,5.2881,5.2838,5.2939,5.2879,5.2889,5.2942,5.296,5.2974,5.2974,5.2762,0,0,0,0,0,5.2927,5.2952,5.2926,5.2983,5.2984,5.2951,5.2962,5.2934,5.293,5.2929,5.2915,5.2913,5.2932,5.2946,5.2962,5.3032,5.3027,5.3067,5.3081,5.3093,5.3101,5.3138,5.3155,5.2971,5.297,5.297,0,0,5.2983,5.2971,5.2989,5.3001,5.2996,5.3023,5.2951,5.2983,5.3002,5.2934,5.2978,5.2968,5.2963,5.3022,5.3048,5.3017,5.3152,5.3103,5.3113,5.3114,5.3147,5.3165,5.3181,5.2976,5.2975,5.2974,0,0,5.3098,5.3092,5.3138,5.3136,5.313,5.3108,5.312,5.3104,5.3094,5.3137,5.3087,5.311,5.3144,5.3143,5.3147,5.3263,5.3224,5.327,5.3344,5.338,5.3394,5.3407,5.3448,5.3464,5.3279,5.3279,5.3279,0,5.3168,5.3207,5.3167,5.3202,5.3208,5.3149,5.3195,5.3195,5.3195,5.3201,5.3167,5.3208,5.3201,5.3259,5.3288,5.3294,5.3305,5.3271,5.3396,5.3408,5.3419,5.3458,5.3474,5.3284,5.3284,5.3283,5.3283,0,5.3293,5.3321,5.3359,5.3361,5.3372,5.3413,5.3379,5.3395,5.3367,5.3348,5.3394,5.3383,5.3396,5.3408,5.338,5.3463,5.3444,5.3404,5.3343,5.3443,5.3479,5.3493,5.3292,5.329,5.3289,5.3287,0,0,5.3464,5.3444,5.3458,5.3458,5.3449,5.3469,5.3508,5.352,5.3535,5.3538,5.3569,5.3599,5.3562,5.3567,5.3539,5.3571,5.3664,5.3526,5.3525,5.3552,5.3753,5.3783,5.3801,5.3638,5.364,5.3643,5.3753,0,5.3574,5.3638,5.3604,5.3672,5.3697,5.3642,5.3675,5.3673,5.3658,5.3677,5.366,5.3682,5.3632,5.3634,5.3663,5.3646,5.3703,5.3638,5.3666,5.3667,5.3667,5.3819,5.3851,5.3956,5.3767,5.377,5.3771,0,5.3711,5.372,5.3791,5.3777,5.3786,5.3817,5.3826,5.3845,5.3842,5.3828,5.3835,5.3799,5.3836,5.3777,5.3827,5.3784,5.3793,5.3787,5.379,5.379,5.3725,5.3823,5.3988,5.4004,5.3793,5.3791,5.379,0,5.3827,5.3857,5.3903,5.3906,5.3891,5.3914,5.3908,5.3902,5.3912,5.392,5.3926,5.3939,5.3946,5.3957,5.3926,5.3886,5.3981,5.3919,5.397,5.3971,5.3992,5.3991,5.416,5.4,5.4,5.3999,5.3999,0,5.3954,5.3999,5.3956,5.3984,5.4034,5.3995,5.4045,5.4034,5.4029,5.4055,5.4008,5.4033,5.3991,5.4012,5.3988,5.4034,5.4037,5.4027,5.402,5.4031,5.4032,5.4036,5.4027,5.4004,5.4003,5.4002,5.4001,0,5.4092,5.4064,5.4111,5.4093,5.409,5.4128,5.4112,5.4138,5.412,5.4153,5.4159,5.413,5.4153,5.4123,5.4143,5.4127,5.4189,5.4171,5.419,5.4184,5.4237,5.4232,5.4414,5.4436,5.4263,5.4264,5.4266,0,5.4173,5.4207,5.4194,5.4207,5.4205,5.4228,5.4238,5.4201,5.4213,5.4213,5.4239,5.4258,5.427,5.4309,5.429,5.4305,5.4287,5.435,5.4289,5.4299,5.4287,5.4285,5.4288,5.4362,5.4364,5.4365,5.4367,0,5.4322,5.4307,5.4323,5.4335,5.4348,5.4356,5.436,5.4374,5.4336,5.4352,5.4374,5.4384,5.4405,5.4424,5.4434,5.4429,5.4392,5.4386,5.4399,5.441,5.4419,5.4414,5.4223,5.4382,5.4381,5.4379,5.4379,5.4378,5.4433,5.4461,5.4456,5.4476,5.4475,5.448,5.4504,5.4489,5.4507,5.452,5.4497,5.4526,5.4522,5.4532,5.4531,5.4553,5.4526,5.4544,5.4549,5.4554,5.4561,5.4416,5.4555,5.4554,5.4554,5.4554,5.4553,0,5.4579,5.4573,5.4592,5.4599,5.4615,5.4579,5.4582,5.4598,5.4623,5.4623,5.4637,5.4663,5.4681,5.4665,5.468,5.47,5.4684,5.4706,5.4703,5.4703,5.4585,5.4572,5.4719,5.4719,5.4719,5.4719,5.4719,5.4719,5.4656,5.4701,5.4685,5.473,5.4723,5.4751,5.4755,5.476,5.476,5.4791,5.4806,5.4795,5.4788,5.4803,5.4818,5.4813,5.482,5.4848,5.4837,5.4727,5.4711,5.4695,5.4683,5.485,5.485,5.4952,5.4953,5.4954]}]]